Вернуться в каталог

CZ-6A DEB

АктивенPO
NORAD 61839·DEBRIS·🇨🇳 China

Запущен Aug 6, 2024 с Taiyuan Satellite Launch Center

Loading…

Ближайшие Пролёты (ближайшие 24 часа)

TLE

УстаревшееSource: Space-Track

Эпоха: Sep 2, 2026, 18:54 UTC

1 61839U 24140ADF 26245.78816542  .00002345  00000-0  76717-3 0  9993
2 61839  88.9246 257.6664 0024341 155.0944 205.1436 14.38075210107644

Отслеживайте CZ-6A DEB в реальном времени с AllMySat

Download on the App Store